contact:dominique.lefevre@mio.osupytheas.fr, maurice.libes@osupytheas.fr, didier.mallarino@osupytheas.fr
Project:EMSO http://www.emso-fr.org/EMSO-France
Depth: 2436.0 m
Title:EMSO Ligure Ouest : Data MII capteur CSTAR
DateTime,Latitude,Longitude,Instrument_Serial,Reference_Counts,Signal_Counts,Corrected_Signal_raw_counts,Calculated_Beam_c_inverse_meters,Internal_thermistor_counts
DateTime,Latitude,Longitude,Instrument_Serial,Reference_Counts,Signal_Counts,Corrected_Signal_raw_counts,Calculated_Beam_c_inverse_meters,Internal_thermistor_counts
2019-08-23T00:01:48,42.805,6.029,CST-1368DR,8209,11487,15412,0.053,551
2019-08-23T00:04:49,42.805,6.029,CST-1368DR,8209,11491,15417,0.051,551
2019-08-23T00:07:51,42.805,6.029,CST-1368DR,8209,11491,15417,0.051,551
2019-08-23T00:10:53,42.805,6.029,CST-1368DR,8209,11491,15416,0.052,551
2019-08-23T00:13:54,42.805,6.029,CST-1368DR,8209,11489,15414,0.052,551
2019-08-23T00:16:56,42.805,6.029,CST-1368DR,8209,11488,15413,0.052,550
2019-08-23T00:19:57,42.805,6.029,CST-1368DR,8209,11491,15417,0.051,551
2019-08-23T00:22:59,42.805,6.029,CST-1368DR,8209,11490,15416,0.052,551
2019-08-23T00:26:01,42.805,6.029,CST-1368DR,8209,11491,15416,0.052,551
2019-08-23T00:29:02,42.805,6.029,CST-1368DR,8209,11489,15414,0.052,551
2019-08-23T00:32:04,42.805,6.029,CST-1368DR,8209,11489,15415,0.052,550
2019-08-23T00:35:06,42.805,6.029,CST-1368DR,8209,11490,15415,0.052,551
2019-08-23T00:38:07,42.805,6.029,CST-1368DR,8209,11487,15412,0.053,551
2019-08-23T00:41:09,42.805,6.029,CST-1368DR,8209,11490,15415,0.052,551
2019-08-23T00:44:10,42.805,6.029,CST-1368DR,8209,11490,15415,0.052,551
2019-08-23T00:47:12,42.805,6.029,CST-1368DR,8209,11491,15416,0.052,551
2019-08-23T00:50:14,42.805,6.029,CST-1368DR,8209,11489,15415,0.052,551
2019-08-23T00:53:15,42.805,6.029,CST-1368DR,8209,11470,15389,0.059,551
2019-08-23T00:56:17,42.805,6.029,CST-1368DR,8209,11490,15415,0.052,551
2019-08-23T00:59:19,42.805,6.029,CST-1368DR,8209,11489,15415,0.052,551
2019-08-23T01:02:20,42.805,6.029,CST-1368DR,8209,11489,15414,0.052,551
2019-08-23T01:05:22,42.805,6.029,CST-1368DR,8209,11491,15416,0.052,550
2019-08-23T01:08:24,42.805,6.029,CST-1368DR,8209,11490,15415,0.052,550
2019-08-23T01:11:25,42.805,6.029,CST-1368DR,8209,11490,15415,0.052,551
2019-08-23T01:14:27,42.805,6.029,CST-1368DR,8209,11489,15415,0.052,550
2019-08-23T01:17:29,42.805,6.029,CST-1368DR,8209,11488,15413,0.052,551
2019-08-23T01:20:30,42.805,6.029,CST-1368DR,8209,11491,15417,0.051,551
2019-08-23T01:23:32,42.805,6.029,CST-1368DR,8209,11491,15417,0.051,551
2019-08-23T01:26:34,42.805,6.029,CST-1368DR,8209,11490,15415,0.052,551
2019-08-23T01:29:35,42.805,6.029,CST-1368DR,8209,11487,15412,0.053,551
2019-08-23T01:32:37,42.805,6.029,CST-1368DR,8209,11490,15415,0.052,551
2019-08-23T01:35:38,42.805,6.029,CST-1368DR,8209,11489,15414,0.052,551
2019-08-23T01:38:40,42.805,6.029,CST-1368DR,8209,11492,15418,0.051,551
2019-08-23T01:41:42,42.805,6.029,CST-1368DR,8209,11490,15415,0.052,551
2019-08-23T01:44:43,42.805,6.029,CST-1368DR,8208,11487,15413,0.052,551
2019-08-23T01:47:45,42.805,6.029,CST-1368DR,8208,11490,15417,0.051,551
2019-08-23T01:50:47,42.805,6.029,CST-1368DR,8208,11470,15391,0.058,551
2019-08-23T01:53:48,42.805,6.029,CST-1368DR,8208,11491,15419,0.051,551
2019-08-23T01:56:50,42.805,6.029,CST-1368DR,8208,11485,15411,0.053,551
2019-08-23T01:59:52,42.805,6.029,CST-1368DR,8208,11488,15415,0.052,551
2019-08-23T02:02:53,42.805,6.029,CST-1368DR,8208,11489,15416,0.052,551
2019-08-23T02:05:55,42.805,6.029,CST-1368DR,8208,11492,15420,0.051,550
2019-08-23T02:08:56,42.805,6.029,CST-1368DR,8208,11490,15417,0.051,550
2019-08-23T02:11:58,42.805,6.029,CST-1368DR,8208,11491,15419,0.051,551
2019-08-23T02:15:00,42.805,6.029,CST-1368DR,8208,11491,15419,0.051,551
2019-08-23T02:18:02,42.805,6.029,CST-1368DR,8208,11490,15417,0.051,551
2019-08-23T02:21:03,42.805,6.029,CST-1368DR,8208,11491,15419,0.051,551
2019-08-23T02:24:05,42.805,6.029,CST-1368DR,8208,11492,15420,0.051,551
2019-08-23T02:27:06,42.805,6.029,CST-1368DR,8208,11490,15417,0.051,551
2019-08-23T02:30:08,42.805,6.029,CST-1368DR,8208,11489,15416,0.052,551
2019-08-23T02:33:10,42.805,6.029,CST-1368DR,8208,11490,15418,0.051,551
2019-08-23T02:36:11,42.805,6.029,CST-1368DR,8208,11467,15386,0.059,551
2019-08-23T02:39:13,42.805,6.029,CST-1368DR,8208,11490,15418,0.051,551
2019-08-23T02:42:15,42.805,6.029,CST-1368DR,8208,11491,15418,0.051,551
2019-08-23T02:45:16,42.805,6.029,CST-1368DR,8208,11491,15418,0.051,551
2019-08-23T02:48:18,42.805,6.029,CST-1368DR,8208,11491,15419,0.051,551
2019-08-23T02:51:20,42.805,6.029,CST-1368DR,8208,11489,15416,0.052,551
2019-08-23T02:54:21,42.805,6.029,CST-1368DR,8208,11490,15418,0.051,551
2019-08-23T02:57:23,42.805,6.029,CST-1368DR,8208,11490,15417,0.051,551
2019-08-23T03:00:24,42.805,6.029,CST-1368DR,8208,11489,15417,0.051,551
2019-08-23T03:03:26,42.805,6.029,CST-1368DR,8208,11486,15412,0.053,550
2019-08-23T03:06:28,42.805,6.029,CST-1368DR,8208,11489,15417,0.051,551
2019-08-23T03:09:30,42.805,6.029,CST-1368DR,8208,11489,15416,0.052,551
2019-08-23T03:12:31,42.805,6.029,CST-1368DR,8208,11490,15417,0.051,551
2019-08-23T03:15:33,42.805,6.029,CST-1368DR,8208,11490,15417,0.051,551
2019-08-23T03:18:34,42.805,6.029,CST-1368DR,8208,11484,15409,0.053,551
2019-08-23T03:21:36,42.805,6.029,CST-1368DR,8208,11487,15413,0.052,551
2019-08-23T03:24:38,42.805,6.029,CST-1368DR,8208,11488,15414,0.052,551
2019-08-23T03:27:39,42.805,6.029,CST-1368DR,8208,11490,15417,0.051,551
2019-08-23T03:30:41,42.805,6.029,CST-1368DR,8208,11490,15418,0.051,551
2019-08-23T03:33:43,42.805,6.029,CST-1368DR,8208,11489,15416,0.052,551
2019-08-23T03:36:44,42.805,6.029,CST-1368DR,8208,11484,15409,0.053,551
2019-08-23T03:39:46,42.805,6.029,CST-1368DR,8208,11487,15413,0.052,551
2019-08-23T03:42:48,42.805,6.029,CST-1368DR,8208,11489,15417,0.051,551
2019-08-23T03:45:49,42.805,6.029,CST-1368DR,8208,11490,15417,0.051,551
2019-08-23T03:48:51,42.805,6.029,CST-1368DR,8208,11487,15414,0.052,551
2019-08-23T03:51:53,42.805,6.029,CST-1368DR,8208,11486,15412,0.053,551
2019-08-23T03:54:54,42.805,6.029,CST-1368DR,8208,11489,15416,0.052,551
2019-08-23T03:57:56,42.805,6.029,CST-1368DR,8208,11489,15416,0.052,551
2019-08-23T04:00:58,42.805,6.029,CST-1368DR,8208,11487,15413,0.052,551
2019-08-23T04:03:59,42.805,6.029,CST-1368DR,8207,11488,15417,0.051,551
2019-08-23T04:07:01,42.805,6.029,CST-1368DR,8208,11489,15417,0.051,550
2019-08-23T04:10:02,42.805,6.029,CST-1368DR,8207,11486,15414,0.052,551
2019-08-23T04:13:04,42.805,6.029,CST-1368DR,8207,11488,15417,0.051,551
2019-08-23T04:16:06,42.805,6.029,CST-1368DR,8207,11490,15419,0.051,550
2019-08-23T04:19:07,42.805,6.029,CST-1368DR,8207,11486,15414,0.052,551
2019-08-23T04:22:09,42.805,6.029,CST-1368DR,8207,11491,15420,0.051,551
2019-08-23T04:25:11,42.805,6.029,CST-1368DR,8207,11489,15418,0.051,551
2019-08-23T04:28:12,42.805,6.029,CST-1368DR,8207,11489,15418,0.051,551
2019-08-23T04:31:14,42.805,6.029,CST-1368DR,8207,11490,15419,0.051,551
2019-08-23T04:34:16,42.805,6.029,CST-1368DR,8207,11491,15420,0.051,551
2019-08-23T04:37:17,42.805,6.029,CST-1368DR,8207,11488,15416,0.052,551
2019-08-23T04:40:19,42.805,6.029,CST-1368DR,8207,11485,15412,0.053,551
2019-08-23T04:43:20,42.805,6.029,CST-1368DR,8207,11489,15418,0.051,551
2019-08-23T04:46:22,42.805,6.029,CST-1368DR,8207,11488,15417,0.051,551
2019-08-23T04:49:24,42.805,6.029,CST-1368DR,8207,11489,15418,0.051,551
2019-08-23T04:52:25,42.805,6.029,CST-1368DR,8207,11485,15413,0.052,551
2019-08-23T04:55:27,42.805,6.029,CST-1368DR,8207,11486,15414,0.052,551
2019-08-23T04:58:29,42.805,6.029,CST-1368DR,8207,11490,15419,0.051,551
2019-08-23T05:01:30,42.805,6.029,CST-1368DR,8207,11487,15415,0.052,551
2019-08-23T05:04:32,42.805,6.029,CST-1368DR,8207,11489,15418,0.051,551
2019-08-23T05:07:34,42.805,6.029,CST-1368DR,8207,11488,15417,0.051,551
2019-08-23T05:10:35,42.805,6.029,CST-1368DR,8207,11489,15418,0.051,551
2019-08-23T05:13:37,42.805,6.029,CST-1368DR,8207,11482,15408,0.054,551
2019-08-23T05:16:38,42.805,6.029,CST-1368DR,8207,11488,15417,0.051,551
2019-08-23T05:19:40,42.805,6.029,CST-1368DR,8207,11486,15414,0.052,551
2019-08-23T05:22:42,42.805,6.029,CST-1368DR,8207,11483,15410,0.053,551
2019-08-23T05:25:43,42.805,6.029,CST-1368DR,8207,11489,15417,0.051,551
2019-08-23T05:28:45,42.805,6.029,CST-1368DR,8207,11488,15417,0.051,551
2019-08-23T05:31:47,42.805,6.029,CST-1368DR,8207,11489,15417,0.051,551
2019-08-23T05:34:48,42.805,6.029,CST-1368DR,8207,11483,15409,0.053,551
2019-08-23T05:37:50,42.805,6.029,CST-1368DR,8207,11488,15416,0.052,551
2019-08-23T05:40:52,42.805,6.029,CST-1368DR,8207,11487,15415,0.052,551
2019-08-23T05:43:53,42.805,6.029,CST-1368DR,8207,11487,15415,0.052,551
2019-08-23T05:46:55,42.805,6.029,CST-1368DR,8207,11488,15417,0.051,551
2019-08-23T05:49:57,42.805,6.029,CST-1368DR,8207,11486,15413,0.052,551
2019-08-23T05:52:58,42.805,6.029,CST-1368DR,8207,11487,15415,0.052,551
2019-08-23T05:56:00,42.805,6.029,CST-1368DR,8207,11488,15417,0.051,551
2019-08-23T05:59:01,42.805,6.029,CST-1368DR,8207,11488,15417,0.051,551
2019-08-23T06:02:03,42.805,6.029,CST-1368DR,8206,11487,15416,0.052,551
2019-08-23T06:05:05,42.805,6.029,CST-1368DR,8206,11488,15418,0.051,551
2019-08-23T06:08:06,42.805,6.029,CST-1368DR,8206,11486,15416,0.052,551
2019-08-23T06:11:08,42.805,6.029,CST-1368DR,8206,11487,15416,0.052,551
2019-08-23T06:14:10,42.805,6.029,CST-1368DR,8206,11487,15417,0.051,551
2019-08-23T06:17:11,42.805,6.029,CST-1368DR,8206,11486,15415,0.052,550
2019-08-23T06:20:13,42.805,6.029,CST-1368DR,8206,11482,15411,0.053,550
2019-08-23T06:23:15,42.805,6.029,CST-1368DR,8206,11487,15417,0.051,551
2019-08-23T06:26:16,42.805,6.029,CST-1368DR,8206,11484,15413,0.052,551
2019-08-23T06:29:18,42.805,6.029,CST-1368DR,8206,11487,15417,0.051,550
2019-08-23T06:32:19,42.805,6.029,CST-1368DR,8206,11487,15417,0.051,551
2019-08-23T06:35:21,42.805,6.029,CST-1368DR,8206,11488,15418,0.051,551
2019-08-23T06:38:23,42.805,6.029,CST-1368DR,8206,11488,15418,0.051,551
2019-08-23T06:41:24,42.805,6.029,CST-1368DR,8206,11487,15417,0.051,551
2019-08-23T06:44:26,42.805,6.029,CST-1368DR,8206,11484,15412,0.053,551
2019-08-23T06:47:28,42.805,6.029,CST-1368DR,8206,11487,15417,0.051,551
2019-08-23T06:50:29,42.805,6.029,CST-1368DR,8206,11487,15417,0.051,550
2019-08-23T06:53:31,42.805,6.029,CST-1368DR,8206,11487,15417,0.051,551
2019-08-23T06:56:33,42.805,6.029,CST-1368DR,8206,11486,15415,0.052,551
2019-08-23T06:59:34,42.805,6.029,CST-1368DR,8206,11487,15417,0.051,551
2019-08-23T07:02:36,42.805,6.029,CST-1368DR,8206,11486,15415,0.052,550
2019-08-23T07:05:38,42.805,6.029,CST-1368DR,8206,11485,15414,0.052,551
2019-08-23T07:08:39,42.805,6.029,CST-1368DR,8205,11484,15414,0.052,551
2019-08-23T07:11:41,42.805,6.029,CST-1368DR,8205,11487,15419,0.051,551
2019-08-23T07:14:42,42.805,6.029,CST-1368DR,8205,11485,15416,0.052,550
2019-08-23T07:17:44,42.805,6.029,CST-1368DR,8206,11486,15416,0.052,551
2019-08-23T07:20:46,42.805,6.029,CST-1368DR,8205,11484,15415,0.052,551
2019-08-23T07:23:47,42.805,6.029,CST-1368DR,8205,11479,15408,0.054,551
2019-08-23T07:26:49,42.805,6.029,CST-1368DR,8205,11487,15419,0.051,551
2019-08-23T07:29:51,42.805,6.029,CST-1368DR,8205,11487,15418,0.051,551
2019-08-23T07:32:52,42.805,6.029,CST-1368DR,8205,11486,15417,0.051,551
2019-08-23T07:35:54,42.805,6.029,CST-1368DR,8205,11486,15417,0.051,551
2019-08-23T07:38:56,42.805,6.029,CST-1368DR,8205,11486,15418,0.051,551
2019-08-23T07:41:57,42.805,6.029,CST-1368DR,8205,11483,15414,0.052,551
2019-08-23T07:44:59,42.805,6.029,CST-1368DR,8205,11485,15416,0.052,551
2019-08-23T07:48:00,42.805,6.029,CST-1368DR,8205,11486,15418,0.051,551
2019-08-23T07:51:02,42.805,6.029,CST-1368DR,8205,11486,15417,0.051,551
2019-08-23T07:54:04,42.805,6.029,CST-1368DR,8205,11484,15415,0.052,550
2019-08-23T07:57:05,42.805,6.029,CST-1368DR,8205,11486,15418,0.051,551
2019-08-23T08:00:07,42.805,6.029,CST-1368DR,8205,11488,15420,0.051,551
2019-08-23T08:03:09,42.805,6.029,CST-1368DR,8205,11487,15418,0.051,551
2019-08-23T08:06:10,42.805,6.029,CST-1368DR,8205,11484,15415,0.052,551
2019-08-23T08:09:12,42.805,6.029,CST-1368DR,8205,11487,15419,0.051,551
2019-08-23T08:12:13,42.805,6.029,CST-1368DR,8205,11484,15415,0.052,551
2019-08-23T08:15:15,42.805,6.029,CST-1368DR,8205,11488,15419,0.051,551
2019-08-23T08:18:17,42.805,6.029,CST-1368DR,8205,11488,15420,0.051,551
2019-08-23T08:21:18,42.805,6.029,CST-1368DR,8205,11486,15417,0.051,551
2019-08-23T08:24:20,42.805,6.029,CST-1368DR,8205,11487,15418,0.051,550
2019-08-23T08:27:22,42.805,6.029,CST-1368DR,8205,11486,15418,0.051,551
2019-08-23T08:30:23,42.805,6.029,CST-1368DR,8205,11481,15410,0.053,551
2019-08-23T08:33:25,42.805,6.029,CST-1368DR,8205,11482,15412,0.053,551
2019-08-23T08:36:27,42.805,6.029,CST-1368DR,8205,11487,15418,0.051,551
2019-08-23T08:39:28,42.805,6.029,CST-1368DR,8205,11486,15417,0.051,551
2019-08-23T08:42:30,42.805,6.029,CST-1368DR,8205,11487,15419,0.051,551
2019-08-23T08:45:32,42.805,6.029,CST-1368DR,8205,11483,15413,0.052,551
2019-08-23T08:48:33,42.805,6.029,CST-1368DR,8205,11481,15411,0.053,551
2019-08-23T08:51:35,42.805,6.029,CST-1368DR,8205,11485,15416,0.052,551
2019-08-23T08:54:37,42.805,6.029,CST-1368DR,8205,11485,15416,0.052,551
2019-08-23T08:57:38,42.805,6.029,CST-1368DR,8205,11485,15416,0.052,550
2019-08-23T09:00:40,42.805,6.029,CST-1368DR,8205,11485,15416,0.052,551
2019-08-23T09:03:42,42.805,6.029,CST-1368DR,8205,11482,15411,0.053,551
2019-08-23T09:06:43,42.805,6.029,CST-1368DR,8205,11486,15417,0.051,551
2019-08-23T09:09:45,42.805,6.029,CST-1368DR,8205,11486,15417,0.051,551
2019-08-23T09:12:46,42.805,6.029,CST-1368DR,8205,11487,15419,0.051,551
2019-08-23T09:15:48,42.805,6.029,CST-1368DR,8205,11486,15417,0.051,550
2019-08-23T09:18:50,42.805,6.029,CST-1368DR,8205,11485,15416,0.052,550
2019-08-23T09:21:51,42.805,6.029,CST-1368DR,8205,11488,15420,0.051,550
2019-08-23T09:24:53,42.805,6.029,CST-1368DR,8205,11487,15419,0.051,551
2019-08-23T09:27:55,42.805,6.029,CST-1368DR,8205,11486,15418,0.051,551
2019-08-23T09:30:57,42.805,6.029,CST-1368DR,8205,11487,15419,0.051,551
2019-08-23T09:33:59,42.805,6.029,CST-1368DR,8205,11487,15418,0.051,551
2019-08-23T09:37:00,42.805,6.029,CST-1368DR,8205,11484,15414,0.052,551
2019-08-23T09:40:02,42.805,6.029,CST-1368DR,8205,11484,15414,0.052,551
2019-08-23T09:43:04,42.805,6.029,CST-1368DR,8205,11485,15416,0.052,551
2019-08-23T09:46:05,42.805,6.029,CST-1368DR,8205,11486,15417,0.051,551
2019-08-23T09:49:07,42.805,6.029,CST-1368DR,8205,11486,15418,0.051,550
2019-08-23T09:52:09,42.805,6.029,CST-1368DR,8205,11485,15416,0.052,551
2019-08-23T09:55:10,42.805,6.029,CST-1368DR,8205,11485,15416,0.052,551
2019-08-23T09:58:12,42.805,6.029,CST-1368DR,8205,11481,15410,0.053,551
2019-08-23T10:01:14,42.805,6.029,CST-1368DR,8205,11485,15416,0.052,551
2019-08-23T10:04:15,42.805,6.029,CST-1368DR,8205,11483,15414,0.052,551
2019-08-23T10:07:17,42.805,6.029,CST-1368DR,8205,11484,15415,0.052,551
2019-08-23T10:10:19,42.805,6.029,CST-1368DR,8205,11487,15418,0.051,551
2019-08-23T10:13:20,42.805,6.029,CST-1368DR,8205,11485,15416,0.052,551
2019-08-23T10:16:22,42.805,6.029,CST-1368DR,8205,11487,15419,0.051,551
2019-08-23T10:19:23,42.805,6.029,CST-1368DR,8205,11485,15416,0.052,551
2019-08-23T10:22:25,42.805,6.029,CST-1368DR,8205,11481,15410,0.053,551
2019-08-23T10:25:27,42.805,6.029,CST-1368DR,8205,11483,15414,0.052,551
2019-08-23T10:28:28,42.805,6.029,CST-1368DR,8205,11483,15413,0.052,551
2019-08-23T10:31:30,42.805,6.029,CST-1368DR,8204,11466,15392,0.058,551
2019-08-23T10:34:32,42.805,6.029,CST-1368DR,8205,11487,15419,0.051,551
2019-08-23T10:37:33,42.805,6.029,CST-1368DR,8204,11483,15414,0.052,551
2019-08-23T10:40:35,42.805,6.029,CST-1368DR,8205,11486,15417,0.051,551
2019-08-23T10:43:37,42.805,6.029,CST-1368DR,8205,11485,15416,0.052,551
2019-08-23T10:46:38,42.805,6.029,CST-1368DR,8204,11483,15415,0.052,551
2019-08-23T10:49:40,42.805,6.029,CST-1368DR,8204,11485,15417,0.051,551
2019-08-23T10:52:42,42.805,6.029,CST-1368DR,8204,11485,15417,0.051,551
2019-08-23T10:55:44,42.805,6.029,CST-1368DR,8204,11484,15416,0.052,551
2019-08-23T10:58:45,42.805,6.029,CST-1368DR,8204,11486,15419,0.051,550
2019-08-23T11:01:47,42.805,6.029,CST-1368DR,8204,11486,15419,0.051,551
2019-08-23T11:04:49,42.805,6.029,CST-1368DR,8204,11485,15418,0.051,551
2019-08-23T11:07:50,42.805,6.029,CST-1368DR,8204,11483,15415,0.052,551
2019-08-23T11:10:52,42.805,6.029,CST-1368DR,8204,11484,15416,0.052,551
2019-08-23T11:13:53,42.805,6.029,CST-1368DR,8204,11485,15418,0.051,551
2019-08-23T11:16:55,42.805,6.029,CST-1368DR,8204,11486,15419,0.051,550
2019-08-23T11:19:57,42.805,6.029,CST-1368DR,8204,11484,15416,0.052,551
2019-08-23T11:22:58,42.805,6.029,CST-1368DR,8204,11483,15415,0.052,550
2019-08-23T11:26:00,42.805,6.029,CST-1368DR,8204,11484,15416,0.052,551
2019-08-23T11:29:02,42.805,6.029,CST-1368DR,8204,11483,15415,0.052,551
2019-08-23T11:32:03,42.805,6.029,CST-1368DR,8204,11483,15415,0.052,551
2019-08-23T11:35:05,42.805,6.029,CST-1368DR,8204,11484,15416,0.052,551
2019-08-23T11:38:07,42.805,6.029,CST-1368DR,8204,11483,15415,0.052,550
2019-08-23T11:41:08,42.805,6.029,CST-1368DR,8204,11485,15418,0.051,551
2019-08-23T11:44:10,42.805,6.029,CST-1368DR,8204,11483,15415,0.052,551
2019-08-23T11:47:12,42.805,6.029,CST-1368DR,8204,11482,15413,0.052,551
2019-08-23T11:50:13,42.805,6.029,CST-1368DR,8204,11480,15411,0.053,550
2019-08-23T11:53:15,42.805,6.029,CST-1368DR,8204,11482,15414,0.052,550
2019-08-23T11:56:16,42.805,6.029,CST-1368DR,8204,11481,15412,0.053,550
2019-08-23T11:59:18,42.805,6.029,CST-1368DR,8204,11483,15415,0.052,551
2019-08-23T12:02:20,42.805,6.029,CST-1368DR,8204,11484,15416,0.052,551
2019-08-23T12:05:22,42.805,6.029,CST-1368DR,8204,11483,15415,0.052,551
2019-08-23T12:08:23,42.805,6.029,CST-1368DR,8204,11485,15418,0.051,551
2019-08-23T12:11:25,42.805,6.029,CST-1368DR,8204,11478,15408,0.054,551
2019-08-23T12:14:27,42.805,6.029,CST-1368DR,8204,11484,15416,0.052,551
2019-08-23T12:17:28,42.805,6.029,CST-1368DR,8204,11483,15415,0.052,551
2019-08-23T12:20:30,42.805,6.029,CST-1368DR,8204,11483,15415,0.052,551
2019-08-23T12:23:32,42.805,6.029,CST-1368DR,8204,11480,15410,0.053,550
2019-08-23T12:26:33,42.805,6.029,CST-1368DR,8204,11483,15414,0.052,551
2019-08-23T12:29:35,42.805,6.029,CST-1368DR,8204,11483,15414,0.052,551
2019-08-23T12:32:36,42.805,6.029,CST-1368DR,8204,11482,15413,0.052,551
2019-08-23T12:35:38,42.805,6.029,CST-1368DR,8203,11475,15405,0.054,551
2019-08-23T12:38:40,42.805,6.029,CST-1368DR,8203,11474,15404,0.055,551
2019-08-23T12:41:41,42.805,6.029,CST-1368DR,8203,11479,15412,0.053,551
2019-08-23T12:44:43,42.805,6.029,CST-1368DR,8204,11480,15411,0.053,551
2019-08-23T12:47:45,42.805,6.029,CST-1368DR,8203,11483,15416,0.052,551
2019-08-23T12:50:46,42.805,6.029,CST-1368DR,8203,11484,15417,0.051,551
2019-08-23T12:53:48,42.805,6.029,CST-1368DR,8203,11483,15416,0.052,551
2019-08-23T12:56:50,42.805,6.029,CST-1368DR,8203,11484,15417,0.051,551
2019-08-23T12:59:51,42.805,6.029,CST-1368DR,8203,11483,15417,0.051,551
2019-08-23T13:02:53,42.805,6.029,CST-1368DR,8203,11482,15416,0.052,551
2019-08-23T13:05:54,42.805,6.029,CST-1368DR,8203,11481,15414,0.052,551
2019-08-23T13:08:56,42.805,6.029,CST-1368DR,8203,11482,15415,0.052,551
2019-08-23T13:11:58,42.805,6.029,CST-1368DR,8203,11481,15414,0.052,551
2019-08-23T13:14:59,42.805,6.029,CST-1368DR,8203,11484,15417,0.051,551
2019-08-23T13:18:01,42.805,6.029,CST-1368DR,8203,11484,15418,0.051,551
2019-08-23T13:21:03,42.805,6.029,CST-1368DR,8203,11485,15419,0.051,551
2019-08-23T13:24:04,42.805,6.029,CST-1368DR,8203,11483,15416,0.052,550
2019-08-23T13:27:06,42.805,6.029,CST-1368DR,8203,11484,15417,0.051,551
2019-08-23T13:30:07,42.805,6.029,CST-1368DR,8203,11483,15417,0.051,551
2019-08-23T13:33:09,42.805,6.029,CST-1368DR,8203,11482,15415,0.052,551
2019-08-23T13:36:11,42.805,6.029,CST-1368DR,8203,11476,15408,0.054,551
2019-08-23T13:39:12,42.805,6.029,CST-1368DR,8203,11482,15415,0.052,551
2019-08-23T13:42:14,42.805,6.029,CST-1368DR,8203,11481,15414,0.052,551
2019-08-23T13:45:16,42.805,6.029,CST-1368DR,8203,11481,15413,0.052,550
2019-08-23T13:48:17,42.805,6.029,CST-1368DR,8203,11482,15416,0.052,551
2019-08-23T13:51:19,42.805,6.029,CST-1368DR,8203,11481,15414,0.052,551
2019-08-23T13:54:21,42.805,6.029,CST-1368DR,8203,11485,15419,0.051,551
2019-08-23T13:57:22,42.805,6.029,CST-1368DR,8203,11483,15417,0.051,551
2019-08-23T14:00:24,42.805,6.029,CST-1368DR,8203,11482,15415,0.052,551
2019-08-23T14:03:26,42.805,6.029,CST-1368DR,8203,11483,15417,0.051,551
2019-08-23T14:06:27,42.805,6.029,CST-1368DR,8203,11484,15417,0.051,551
2019-08-23T14:09:29,42.805,6.029,CST-1368DR,8203,11482,15416,0.052,551
2019-08-23T14:12:31,42.805,6.029,CST-1368DR,8203,11484,15417,0.051,551
2019-08-23T14:15:32,42.805,6.029,CST-1368DR,8203,11483,15417,0.051,551
2019-08-23T14:18:34,42.805,6.029,CST-1368DR,8203,11476,15408,0.054,550
2019-08-23T14:21:36,42.805,6.029,CST-1368DR,8203,11482,15415,0.052,551
2019-08-23T14:24:37,42.805,6.029,CST-1368DR,8203,11481,15414,0.052,551
2019-08-23T14:27:39,42.805,6.029,CST-1368DR,8203,11483,15417,0.051,551
2019-08-23T14:30:40,42.805,6.029,CST-1368DR,8203,11483,15416,0.052,551
2019-08-23T14:33:42,42.805,6.029,CST-1368DR,8203,11484,15417,0.051,551
2019-08-23T14:36:44,42.805,6.029,CST-1368DR,8203,11481,15414,0.052,551
2019-08-23T14:39:45,42.805,6.029,CST-1368DR,8203,11479,15411,0.053,551
2019-08-23T14:42:47,42.805,6.029,CST-1368DR,8203,11483,15416,0.052,551
2019-08-23T14:45:49,42.805,6.029,CST-1368DR,8203,11479,15411,0.053,551
2019-08-23T14:48:50,42.805,6.029,CST-1368DR,8203,11476,15407,0.054,551
2019-08-23T14:51:52,42.805,6.029,CST-1368DR,8202,11482,15418,0.051,551
2019-08-23T14:54:53,42.805,6.029,CST-1368DR,8203,11483,15416,0.052,551
2019-08-23T14:57:55,42.805,6.029,CST-1368DR,8203,11482,15415,0.052,551
2019-08-23T15:00:57,42.805,6.029,CST-1368DR,8203,11482,15415,0.052,551
2019-08-23T15:03:58,42.805,6.029,CST-1368DR,8202,11483,15418,0.051,551
2019-08-23T15:07:00,42.805,6.029,CST-1368DR,8202,11481,15415,0.052,551
2019-08-23T15:10:02,42.805,6.029,CST-1368DR,8202,11483,15418,0.051,551
2019-08-23T15:13:03,42.805,6.029,CST-1368DR,8202,11481,15415,0.052,551
2019-08-23T15:16:05,42.805,6.029,CST-1368DR,8202,11482,15418,0.051,551
2019-08-23T15:19:07,42.805,6.029,CST-1368DR,8202,11480,15415,0.052,551
2019-08-23T15:22:08,42.805,6.029,CST-1368DR,8202,11483,15418,0.051,550
2019-08-23T15:25:10,42.805,6.029,CST-1368DR,8202,11481,15416,0.052,551
2019-08-23T15:28:12,42.805,6.029,CST-1368DR,8202,11483,15419,0.051,550
2019-08-23T15:31:13,42.805,6.029,CST-1368DR,8202,11482,15417,0.051,550
2019-08-23T15:34:15,42.805,6.029,CST-1368DR,8202,11481,15416,0.052,551
2019-08-23T15:37:17,42.805,6.029,CST-1368DR,8202,11480,15414,0.052,550
2019-08-23T15:40:18,42.805,6.029,CST-1368DR,8202,11483,15418,0.051,551
2019-08-23T15:43:20,42.805,6.029,CST-1368DR,8202,11480,15414,0.052,551
2019-08-23T15:46:22,42.805,6.029,CST-1368DR,8202,11483,15418,0.051,551
2019-08-23T15:49:23,42.805,6.029,CST-1368DR,8202,11481,15416,0.052,551
2019-08-23T15:52:25,42.805,6.029,CST-1368DR,8202,11481,15416,0.052,551
2019-08-23T15:55:26,42.805,6.029,CST-1368DR,8202,11481,15416,0.052,551
2019-08-23T15:58:28,42.805,6.029,CST-1368DR,8202,11482,15417,0.051,551
2019-08-23T16:01:30,42.805,6.029,CST-1368DR,8202,11480,15415,0.052,550
2019-08-23T16:04:31,42.805,6.029,CST-1368DR,8202,11476,15409,0.053,551
2019-08-23T16:07:33,42.805,6.029,CST-1368DR,8202,11482,15417,0.051,550
2019-08-23T16:10:35,42.805,6.029,CST-1368DR,8202,11481,15415,0.052,551
2019-08-23T16:13:36,42.805,6.029,CST-1368DR,8202,11479,15413,0.052,551
2019-08-23T16:16:38,42.805,6.029,CST-1368DR,8202,11480,15414,0.052,550
2019-08-23T16:19:40,42.805,6.029,CST-1368DR,8202,11481,15415,0.052,551
2019-08-23T16:22:42,42.805,6.029,CST-1368DR,8202,11479,15413,0.052,551
2019-08-23T16:25:43,42.805,6.029,CST-1368DR,8202,11480,15414,0.052,550
2019-08-23T16:28:45,42.805,6.029,CST-1368DR,8202,11480,15414,0.052,551
2019-08-23T16:31:47,42.805,6.029,CST-1368DR,8202,11479,15413,0.052,551
2019-08-23T16:34:48,42.805,6.029,CST-1368DR,8202,11482,15417,0.051,551
2019-08-23T16:37:50,42.805,6.029,CST-1368DR,8202,11481,15416,0.052,551